Find Starlink 31166

NORAD ID: 58789 Int'l Des: 2024-012 Owner: SPXS Country: US Constellation: starlink operational
LEOCIRCULAR

リアルタイム位置

3D地球を読み込み中...

Starlink 31166について

説明を読み込み中...

次回通過

Passes for default location (London). Set your location on the main map for personalized predictions.

高度履歴

Loading altitude history...

軌道要素

1 58789U 24012C 26121.29940983 .00001154 00000-0 51446-4 0 9997
2 58789 43.0000 227.9867 0001400 219.0248 141.0503 15.27593650129287
Epoch: May 1, 2026 • Age: 9 hours

現在のステータス

高度 482.2 km
速度 7.63 km/s
衛星直下点 -1.08°S, 49.83°W
打ち上げ日 Jan 15, 2024
運用期間 2.2 years
タイプ internet

技術仕様

分類 Payload
質量 730.00 kg
乾燥質量 700.00 kg
総質量 730.00 kg
長さ 0.30 m
直径 4.10 m
スパン 29.00 m
形状 Box + pan
製造者 SPXS
バスタイプ Starlink V2M
フェーズステータス In Orbit
所有者/国 SPXS/US

Most Searched